Time,TemperatureF,DewpointF,PressureIn,WindDirection,WindDirectionDegrees,WindSpeedMPH,WindSpeedGustMPH,Humidity,HourlyPrecipIn,Conditions,Clouds,dailyrainin,SoftwareType,DateUTC
2013-06-23 00:03:00,90.0,10.0,29.92,WNW,292,4.0,16.0,5,0.00,,,0.00,weatherlink.com 1.10,2013-06-23 06:03:00,
2013-06-23 00:18:00,89.6,10.0,29.93,WNW,284,6.0,12.0,5,0.00,,,0.00,weatherlink.com 1.10,2013-06-23 06:18:00,
2013-06-23 00:34:00,89.6,10.0,29.93,WNW,287,4.0,15.0,5,0.00,,,0.00,weatherlink.com 1.10,2013-06-23 06:34:00,
2013-06-23 00:49:00,88.9,9.0,29.93,West,275,3.0,10.0,5,0.00,,,0.00,weatherlink.com 1.10,2013-06-23 06:49:00,
2013-06-23 01:04:00,88.6,13.0,29.93,West,281,4.0,11.0,6,0.00,,,0.00,weatherlink.com 1.10,2013-06-23 07:04:00,
2013-06-23 01:19:00,88.0,13.0,29.93,WNW,294,5.0,10.0,6,0.00,,,0.00,weatherlink.com 1.10,2013-06-23 07:19:00,
2013-06-23 01:34:00,87.0,12.0,29.93,West,278,5.0,9.0,6,0.00,,,0.00,weatherlink.com 1.10,2013-06-23 07:34:00,
2013-06-23 01:49:00,86.1,15.0,29.94,SSE,150,0.0,4.0,7,0.00,,,0.00,weatherlink.com 1.10,2013-06-23 07:49:00,
2013-06-23 02:05:00,83.5,19.0,29.94,SSE,157,0.0,1.0,9,0.00,,,0.00,weatherlink.com 1.10,2013-06-23 08:05:00,
2013-06-23 02:20:00,84.0,13.0,29.95,WSW,243,7.0,11.0,7,0.00,,,0.00,weatherlink.com 1.10,2013-06-23 08:20:00,
2013-06-23 02:35:00,84.3,17.0,29.94,SW,227,2.0,12.0,8,0.00,,,0.00,weatherlink.com 1.10,2013-06-23 08:35:00,
2013-06-23 02:50:00,83.7,26.0,29.95,WSW,239,14.0,14.0,12,0.00,,,0.00,weatherlink.com 1.10,2013-06-23 08:50:00,
2013-06-23 03:06:00,83.8,37.0,29.95,SW,223,5.0,15.0,19,0.00,,,0.00,weatherlink.com 1.10,2013-06-23 09:06:00,
2013-06-23 03:21:00,83.4,41.0,29.95,SW,215,14.0,15.0,22,0.00,,,0.00,weatherlink.com 1.10,2013-06-23 09:21:00,
2013-06-23 03:36:00,83.6,43.0,29.95,SW,234,8.0,18.0,24,0.00,,,0.00,weatherlink.com 1.10,2013-06-23 09:36:00,
2013-06-23 03:51:00,83.6,44.0,29.96,South,171,6.0,13.0,25,0.00,,,0.00,weatherlink.com 1.10,2013-06-23 09:51:00,
2013-06-23 04:06:00,82.1,48.0,29.96,South,176,12.0,15.0,31,0.00,,,0.00,weatherlink.com 1.10,2013-06-23 10:06:00,
2013-06-23 04:22:00,80.9,48.0,29.96,South,189,9.0,17.0,32,0.00,,,0.00,weatherlink.com 1.10,2013-06-23 10:22:00,
2013-06-23 04:37:00,80.2,48.0,29.96,South,187,10.0,12.0,33,0.00,,,0.00,weatherlink.com 1.10,2013-06-23 10:37:00,
2013-06-23 04:52:00,79.7,50.0,29.96,South,182,5.0,15.0,35,0.00,,,0.00,weatherlink.com 1.10,2013-06-23 10:52:00,
2013-06-23 05:07:00,78.8,50.0,29.96,SSE,164,6.0,16.0,37,0.00,,,0.00,weatherlink.com 1.10,2013-06-23 11:07:00,
2013-06-23 05:22:00,78.1,50.0,29.96,South,188,4.0,11.0,38,0.00,,,0.00,weatherlink.com 1.10,2013-06-23 11:22:00,
2013-06-23 05:38:00,77.7,51.0,29.96,South,177,7.0,11.0,39,0.00,,,0.00,weatherlink.com 1.10,2013-06-23 11:38:00,
2013-06-23 05:53:00,77.1,51.0,29.96,SSE,167,3.0,8.0,40,0.00,,,0.00,weatherlink.com 1.10,2013-06-23 11:53:00,
2013-06-23 06:08:00,76.6,50.0,29.97,SE,141,3.0,8.0,40,0.00,,,0.00,weatherlink.com 1.10,2013-06-23 12:08:00,
2013-06-23 06:23:00,75.9,51.0,29.97,SE,136,1.0,8.0,42,0.00,,,0.00,weatherlink.com 1.10,2013-06-23 12:23:00,
2013-06-23 06:38:00,75.7,51.0,29.97,ESE,123,3.0,6.0,42,0.00,,,0.00,weatherlink.com 1.10,2013-06-23 12:38:00,
2013-06-23 06:54:00,78.6,47.0,29.97,South,188,5.0,12.0,33,0.00,,,0.00,weatherlink.com 1.10,2013-06-23 12:54:00,
2013-06-23 07:09:00,80.9,45.0,29.97,WSW,257,1.0,12.0,28,0.00,,,0.00,weatherlink.com 1.10,2013-06-23 13:09:00,
2013-06-23 07:24:00,81.8,44.0,29.97,NW,323,4.0,9.0,26,0.00,,,0.00,weatherlink.com 1.10,2013-06-23 13:24:00,
2013-06-23 07:39:00,81.1,48.0,29.98,NE,48,4.0,11.0,32,0.00,,,0.00,weatherlink.com 1.10,2013-06-23 13:39:00,
2013-06-23 07:54:00,82.4,47.0,29.98,ENE,68,3.0,9.0,29,0.00,,,0.00,weatherlink.com 1.10,2013-06-23 13:54:00,
2013-06-23 08:10:00,83.9,41.0,29.98,ENE,66,0.0,7.0,22,0.00,,,0.00,weatherlink.com 1.10,2013-06-23 14:10:00,
2013-06-23 08:25:00,86.0,33.0,29.98,West,267,2.0,11.0,15,0.00,,,0.00,weatherlink.com 1.10,2013-06-23 14:25:00,
2013-06-23 08:40:00,87.3,30.0,29.99,West,277,5.0,9.0,13,0.00,,,0.00,weatherlink.com 1.10,2013-06-23 14:40:00,
2013-06-23 08:55:00,87.5,32.0,29.99,West,270,8.0,13.0,14,0.00,,,0.00,weatherlink.com 1.10,2013-06-23 14:55:00,
2013-06-23 09:10:00,88.1,33.0,29.99,West,273,4.0,15.0,14,0.00,,,0.00,weatherlink.com 1.10,2013-06-23 15:10:00,
2013-06-23 09:26:00,88.4,38.0,29.99,WNW,296,9.0,14.0,17,0.00,,,0.00,weatherlink.com 1.10,2013-06-23 15:26:00,
2013-06-23 09:41:00,88.6,33.0,29.99,West,275,3.0,16.0,14,0.00,,,0.00,weatherlink.com 1.10,2013-06-23 15:41:00,
2013-06-23 09:56:00,89.6,36.0,29.98,West,271,4.0,14.0,15,0.00,,,0.00,weatherlink.com 1.10,2013-06-23 15:56:00,
2013-06-23 10:11:00,89.7,39.0,29.98,West,273,10.0,15.0,17,0.00,,,0.00,weatherlink.com 1.10,2013-06-23 16:11:00,
2013-06-23 10:26:00,90.3,36.0,29.99,WNW,286,5.0,11.0,15,0.00,,,0.00,weatherlink.com 1.10,2013-06-23 16:26:00,
2013-06-23 10:41:00,91.7,36.0,29.99,West,261,1.0,10.0,14,0.00,,,0.00,weatherlink.com 1.10,2013-06-23 16:41:00,
2013-06-23 10:57:00,92.4,30.0,29.99,WNW,297,7.0,11.0,11,0.00,,,0.00,weatherlink.com 1.10,2013-06-23 16:57:00,
2013-06-23 11:12:00,92.8,28.0,29.99,SW,221,3.0,12.0,10,0.00,,,0.00,weatherlink.com 1.10,2013-06-23 17:12:00,
2013-06-23 11:27:00,94.5,27.0,29.98,SW,227,8.0,11.0,9,0.00,,,0.00,weatherlink.com 1.10,2013-06-23 17:27:00,
2013-06-23 11:42:00,94.4,27.0,29.98,WNW,291,8.0,15.0,9,0.00,,,0.00,weatherlink.com 1.10,2013-06-23 17:42:00,
2013-06-23 11:58:00,95.7,25.0,29.97,ENE,78,0.0,10.0,8,0.00,,,0.00,weatherlink.com 1.10,2013-06-23 17:58:00,
2013-06-23 12:13:00,95.4,28.0,29.97,North,5,6.0,17.0,9,0.00,,,0.00,weatherlink.com 1.10,2013-06-23 18:13:00,
2013-06-23 12:28:00,96.8,26.0,29.97,West,271,4.0,16.0,8,0.00,,,0.00,weatherlink.com 1.10,2013-06-23 18:28:00,
2013-06-23 12:43:00,97.3,26.0,29.96,West,265,7.0,10.0,8,0.00,,,0.00,weatherlink.com 1.10,2013-06-23 18:43:00,
2013-06-23 12:58:00,97.7,29.0,29.96,WNW,296,8.0,15.0,9,0.00,,,0.00,weatherlink.com 1.10,2013-06-23 18:58:00,
2013-06-23 13:13:00,97.1,29.0,29.95,WNW,291,7.0,15.0,9,0.00,,,0.00,weatherlink.com 1.10,2013-06-23 19:13:00,
2013-06-23 13:29:00,98.2,27.0,29.94,WNW,286,9.0,14.0,8,0.00,,,0.00,weatherlink.com 1.10,2013-06-23 19:29:00,
2013-06-23 13:44:00,99.4,28.0,29.93,SSW,195,7.0,13.0,8,0.00,,,0.00,weatherlink.com 1.10,2013-06-23 19:44:00,
2013-06-23 13:59:00,99.2,28.0,29.93,WSW,257,4.0,12.0,8,0.00,,,0.00,weatherlink.com 1.10,2013-06-23 19:59:00,
2013-06-23 14:14:00,99.6,31.0,29.93,NW,306,9.0,20.0,9,0.00,,,0.00,weatherlink.com 1.10,2013-06-23 20:14:00,
2013-06-23 14:29:00,100.7,29.0,29.92,West,263,7.0,15.0,8,0.00,,,0.00,weatherlink.com 1.10,2013-06-23 20:29:00,
2013-06-23 14:44:00,100.3,28.0,29.91,SE,144,2.0,15.0,8,0.00,,,0.00,weatherlink.com 1.10,2013-06-23 20:44:00,
2013-06-23 15:00:00,101.0,26.0,29.91,SW,215,9.0,25.0,7,0.00,,,0.00,weatherlink.com 1.10,2013-06-23 21:00:00,
2013-06-23 15:15:00,100.7,25.0,29.90,SSW,192,6.0,23.0,7,0.00,,,0.00,weatherlink.com 1.10,2013-06-23 21:15:00,
2013-06-23 15:30:00,101.4,29.0,29.90,SW,229,9.0,14.0,8,0.00,,,0.00,weatherlink.com 1.10,2013-06-23 21:30:00,
2013-06-23 15:46:00,101.8,26.0,29.89,SW,223,14.0,18.0,7,0.00,,,0.00,weatherlink.com 1.10,2013-06-23 21:46:00,
2013-06-23 16:01:00,101.3,26.0,29.88,SW,216,7.0,16.0,7,0.00,,,0.00,weatherlink.com 1.10,2013-06-23 22:01:00,
2013-06-23 16:16:00,102.7,27.0,29.87,SE,142,11.0,16.0,7,0.00,,,0.00,weatherlink.com 1.10,2013-06-23 22:16:00,
2013-06-23 16:31:00,102.3,27.0,29.87,SSW,204,11.0,19.0,7,0.00,,,0.00,weatherlink.com 1.10,2013-06-23 22:31:00,
2013-06-23 16:46:00,102.0,30.0,29.86,SSW,194,11.0,15.0,8,0.00,,,0.00,weatherlink.com 1.10,2013-06-23 22:46:00,
2013-06-23 17:01:00,102.1,30.0,29.85,WNW,287,1.0,11.0,8,0.00,,,0.00,weatherlink.com 1.10,2013-06-23 23:01:00,
2013-06-23 17:17:00,101.3,29.0,29.85,SSW,207,10.0,13.0,8,0.00,,,0.00,weatherlink.com 1.10,2013-06-23 23:17:00,
2013-06-23 17:32:00,100.7,29.0,29.84,SW,219,2.0,20.0,8,0.00,,,0.00,weatherlink.com 1.10,2013-06-23 23:32:00,
2013-06-23 17:47:00,100.9,26.0,29.84,South,173,4.0,13.0,7,0.00,,,0.00,weatherlink.com 1.10,2013-06-23 23:47:00,
2013-06-23 18:02:00,100.5,29.0,29.84,West,277,5.0,13.0,8,0.00,,,0.00,weatherlink.com 1.10,2013-06-24 00:02:00,
2013-06-23 18:18:00,99.6,28.0,29.84,WSW,252,3.0,19.0,8,0.00,,,0.00,weatherlink.com 1.10,2013-06-24 00:18:00,
2013-06-23 18:33:00,99.5,28.0,29.83,West,273,3.0,14.0,8,0.00,,,0.00,weatherlink.com 1.10,2013-06-24 00:33:00,
2013-06-23 18:48:00,98.6,30.0,29.84,WSW,239,6.0,16.0,9,0.00,,,0.00,weatherlink.com 1.10,2013-06-24 00:48:00,
2013-06-23 19:03:00,97.7,29.0,29.83,SW,225,7.0,14.0,9,0.00,,,0.00,weatherlink.com 1.10,2013-06-24 01:03:00,
2013-06-23 19:18:00,96.7,29.0,29.84,SW,215,9.0,9.0,9,0.00,,,0.00,weatherlink.com 1.10,2013-06-24 01:18:00,
2013-06-23 19:33:00,95.7,30.0,29.83,West,278,2.0,6.0,10,0.00,,,0.00,weatherlink.com 1.10,2013-06-24 01:33:00,
2013-06-23 19:49:00,94.4,29.0,29.84,South,186,3.0,7.0,10,0.00,,,0.00,weatherlink.com 1.10,2013-06-24 01:49:00,
2013-06-23 20:04:00,93.5,33.0,29.84,SW,215,0.0,4.0,12,0.00,,,0.00,weatherlink.com 1.10,2013-06-24 02:04:00,
2013-06-23 20:19:00,92.0,34.0,29.84,SSW,211,2.0,4.0,13,0.00,,,0.00,weatherlink.com 1.10,2013-06-24 02:19:00,
2013-06-23 20:34:00,91.7,36.0,29.84,SSW,211,1.0,4.0,14,0.00,,,0.00,weatherlink.com 1.10,2013-06-24 02:34:00,
2013-06-23 20:49:00,91.3,37.0,29.85,SSW,211,0.0,2.0,15,0.00,,,0.00,weatherlink.com 1.10,2013-06-24 02:49:00,
2013-06-23 21:05:00,90.8,35.0,29.85,SSW,211,0.0,3.0,14,0.00,,,0.00,weatherlink.com 1.10,2013-06-24 03:05:00,
2013-06-23 21:20:00,91.1,31.0,29.85,South,174,2.0,8.0,12,0.00,,,0.00,weatherlink.com 1.10,2013-06-24 03:20:00,
2013-06-23 21:35:00,91.9,32.0,29.86,South,187,4.0,6.0,12,0.00,,,0.00,weatherlink.com 1.10,2013-06-24 03:35:00,
2013-06-23 21:50:00,91.6,34.0,29.86,South,187,1.0,4.0,13,0.00,,,0.00,weatherlink.com 1.10,2013-06-24 03:50:00,
2013-06-23 22:06:00,90.1,34.0,29.87,SSW,201,0.0,4.0,14,0.00,,,0.00,weatherlink.com 1.10,2013-06-24 04:06:00,
2013-06-23 22:21:00,89.4,34.0,29.87,SW,218,3.0,4.0,14,0.00,,,0.00,weatherlink.com 1.10,2013-06-24 04:21:00,
2013-06-23 22:36:00,89.1,34.0,29.88,South,182,0.0,3.0,14,0.00,,,0.00,weatherlink.com 1.10,2013-06-24 04:36:00,
2013-06-23 22:51:00,88.5,35.0,29.88,South,182,0.0,1.0,15,0.00,,,0.00,weatherlink.com 1.10,2013-06-24 04:51:00,
2013-06-23 23:06:00,89.1,34.0,29.88,South,181,1.0,4.0,14,0.00,,,0.00,weatherlink.com 1.10,2013-06-24 05:06:00,
2013-06-23 23:21:00,89.8,32.0,29.89,SSW,194,6.0,11.0,13,0.00,,,0.00,weatherlink.com 1.10,2013-06-24 05:21:00,
2013-06-23 23:52:00,90.2,31.0,29.89,West,277,6.0,12.0,12,0.00,,,0.00,weatherlink.com 1.10,2013-06-24 05:52:00,